STARLINK-5013, 55492

Orbit data source: Space-Track

STARLINK-5013, 55492 is a payload satellite owned by SpaceX/Seattle (US) in LEO that was launched on Thu, 02 Feb 2023 UTC via an FALCON 9 launch vehicle from the Air Force Eastern Test Range (AFETR). Payload-class satellites include a variety of spacecraft equipped with specific instruments for various scientific and technological missions. These include communications satellites like Starlink; space stations such as the ISS; scientific satellites like the Hubble; Earth observation satellites from companies like Planet Labs, Umbra, and HawkEye 360; GPS; miniature CubeSats for education and research; and military/defense satellites.

Loading next visibility...
Identifier
55492, 2023-015AV
Orbit
LEO
Country
Flag of USUS
Related business
Manufacturer
SpaceX/Seattle
Mission
Operational Commercial Communications
Bus & Motor
STARLINK, Unknown motor
Mass
305 kg wet, ~290 kg dry
Launch date (UTC)
2023-02-02 (3 years ago)
Launch vehicle
FALCON 9
Launch site
Air Force Eastern Test Range (AFETR)
Object type
Payload
Rocket body
Debris
Shape & HBR
Box + 1 Pan, 10.1 m
Radar Cross Section
13.562 m², Large (>1 m²)

Expand to show TLE details & history
Last TLE update: 9 hours ago

TLE from 9 hours ago
0 STARLINK-5013
1 55492U 23015AV  25288.62161753  .00000492  00000-0  51517-4 0  9990
2 55492  43.0044  47.0923 0001045 273.8192  86.2531 15.02532050148785
Epoch: 2025-10-15T14:55Z
TLE epoch observation values (Epoch: 2025-10-15T14:55:07.754Z)
Latitude
-0.00002°
Longitude
158.91692°
Altitude
558.823 km
Speed
7.584 km/s
True Right ascension
03h 08m 22s
True Declination
0° 00' 00"
Sunlit
Object was in full shadow at epoch
Visualization orbit readout
Latitude
Unknown
Longitude
Unknown
Altitude
Unknown
Speed
Unknown
Apparent Right ascension
Unknown
Apparent Declination
Unknown
Sunlit
N/A
Visualization observer readout
Local Sidereal Time
18:43:04
Azimuth
Unknown
Elevation
Unknown
Doppler factor
Unknown
Orbital elements
Apogee altitude
561.74 km
Perigee altitude
560.29 km
Semi-major axis
6,939.152 km
Eccentricity
0.0001
Inclination
43.0044°
RAAN
47.0923°
Arg. of periapsis
273.8192°
True anomaly
86.26505°
Mean anomaly
86.2531°
Eccentric anomaly
86.25907°
Mean motion
3.75477 °/min
Orbital period
95.88 mins
BSTAR
0.000051517
Loading maneuver chart data...
Computing Atmospheric mass density...
Loading historical data...
Loading historical data...
Loading historical data...
Loading historical data...
Loading historical data...
Loading historical data...
Loading historical data...

Documentation

Showing up to 5 results
|